Camp Pendleton, CA

1:14 AM PST on February 06, 2016 (GMT -0800)
Camp Pendleton Marine Corps Air Station

Weather History for KNFG - March, 2013

Change the Weather History Date:

Tuesday, March 5, 2013

  Actual Average Record
Temperature  
Mean Temperature 58 °F -  
Max Temperature 61 °F 65 °F 86 °F (1997)
Min Temperature 54 °F 41 °F 34 °F (2015)
Degree Days  
Heating Degree Days 8    
Growing Degree Days 8 (Base 50)    
Moisture  
Dew Point 48 °F    
Average Humidity 71    
Maximum Humidity 80    
Minimum Humidity 64    
Precipitation  
Precipitation 0.00 in - - ()
Sea Level Pressure  
Sea Level Pressure 30.10 in    
Wind  
Wind Speed 3 mph (West)    
Max Wind Speed 9 mph    
Max Gust Speed -    
Visibility 9 miles    
Events      
Averages and records for this station are not official NWS values.
T = Trace of Precipitation, MM = Missing Value Source: NWS Daily Summary

Daily Weather History Graph

Daily Weather History Graph

Search for Another Location

Airport or City:

Trip Planner

Search our weather history database for the weather conditions in past years. The results will help you decide how hot, cold, wet, or windy it might be!

Date:

Astronomy

Mar. 05, 2013 Rise Set
Actual Time 6:12 AM PST 5:49 PM PST
Civil Twilight 5:47 AM PST 6:14 PM PST
Nautical Twilight 5:18 AM PST 6:43 PM PST
Astronomical Twilight 4:49 AM PST 7:12 PM PST
Moon 1:15 AM PST (3/5) 11:46 AM PST (3/5)
Length of Visible Light 12h 27m
Length of Day
11h 37m
Last Quarter, 39% of the Moon is Illuminated
Mar 5
Last Quarter
Mar 11
New
Mar 19
First Quarter
Mar 27
Full
Apr 2
Last Quarter

Hourly Weather History & Observations

Time (PST) Temp. Dew Point Humidity Pressure Visibility Wind Dir Wind Speed Gust Speed Precip Events Conditions
12:07 AM 57.2 °F 48.2 °F 72% 30.10 in 10.0 mi NNE 3.5 mph - N/A   Overcast
12:54 AM 55.9 °F 48.9 °F 77% 30.11 in 10.0 mi Calm Calm - N/A   Overcast
1:54 AM 55.0 °F 48.0 °F 77% 30.09 in 10.0 mi Calm Calm - N/A   Overcast
2:54 AM 54.0 °F 48.0 °F 80% 30.09 in 10.0 mi Calm Calm - N/A   Overcast
3:40 AM 55.4 °F 48.2 °F 77% 30.10 in 10.0 mi NE 3.5 mph - N/A   Overcast
3:54 AM 55.0 °F 48.0 °F 77% 30.10 in 10.0 mi NNE 3.5 mph - N/A   Overcast
4:54 AM 55.0 °F 48.0 °F 77% 30.09 in 10.0 mi NNE 3.5 mph - N/A   Overcast
5:54 AM 55.0 °F 48.0 °F 77% 30.10 in 5.0 mi ENE 4.6 mph - N/A   Overcast
6:54 AM 55.9 °F 48.0 °F 75% 30.10 in 5.0 mi NNE 3.5 mph - N/A   Overcast
7:47 AM 55.4 °F 48.2 °F 77% 30.10 in 9.0 mi NNE 3.5 mph - N/A   Overcast
7:54 AM 57.0 °F 48.9 °F 74% 30.10 in 5.0 mi NNE 4.6 mph - N/A   Overcast
8:54 AM 57.9 °F 48.9 °F 72% 30.10 in 7.0 mi Calm Calm - N/A   Mostly Cloudy
9:23 AM 59.0 °F 48.2 °F 67% 30.11 in 8.0 mi Variable 3.5 mph - N/A   Overcast
9:54 AM 59.0 °F 48.9 °F 69% 30.11 in 9.0 mi South 6.9 mph - N/A   Mostly Cloudy
10:54 AM 60.1 °F 50.0 °F 69% 30.11 in 9.0 mi SW 8.1 mph - N/A   Mostly Cloudy
11:54 AM 60.1 °F 50.0 °F 69% 30.10 in 10.0 mi WSW 9.2 mph - N/A   Overcast
12:54 PM 61.0 °F 48.9 °F 64% 30.08 in 10.0 mi SSW 4.6 mph - N/A   Mostly Cloudy
1:54 PM 61.0 °F 48.9 °F 64% 30.06 in 10.0 mi SW 5.8 mph - N/A   Mostly Cloudy
2:54 PM 61.0 °F 48.9 °F 64% 30.06 in 10.0 mi SW 8.1 mph - N/A   Mostly Cloudy
3:54 PM 59.0 °F 48.0 °F 67% 30.06 in 10.0 mi SW 6.9 mph - N/A   Mostly Cloudy
4:54 PM 57.9 °F 46.9 °F 67% 30.06 in 10.0 mi SW 8.1 mph - N/A   Mostly Cloudy
5:54 PM 57.0 °F 46.9 °F 69% 30.07 in 10.0 mi WSW 4.6 mph - N/A   Overcast
6:54 PM 55.9 °F 46.0 °F 69% 30.09 in 10.0 mi WSW 3.5 mph - N/A   Overcast
7:54 PM 55.9 °F 46.0 °F 69% 30.09 in 10.0 mi Calm Calm - N/A   Overcast
8:54 PM 55.9 °F 46.0 °F 69% 30.11 in 10.0 mi SW 3.5 mph - N/A   Overcast
9:54 PM 55.9 °F 46.9 °F 72% 30.12 in 10.0 mi Calm Calm - N/A   Overcast
10:54 PM 55.9 °F 46.0 °F 69% 30.12 in 10.0 mi Calm Calm - N/A   Overcast
11:54 PM 55.9 °F 45.0 °F 67% 30.14 in 10.0 mi Calm Calm - N/A   Overcast